H1 CPF 2 NER 2021 11 24 9 328 01 glonass143 H2 2007501 9143 46805 2021 11 24 0 0 0 2021 11 27 23 45 0 900 1 1 0 0 0 1 H9 10 0 59542 0.00000 0 -14489878.063 7893765.995 -19444739.020 10 0 59542 900.00000 0 -16775240.999 7851219.132 -17532619.521 10 0 59542 1800.00000 0 -18801156.318 7973031.121 -15279793.341 10 0 59542 2700.00000 0 -20517939.088 8220007.121 -12730077.718 10 0 59542 3600.00000 0 -21886262.438 8545207.769 -9933048.377 10 0 59542 4500.00000 0 -22878626.940 8896119.422 -6943072.933 10 0 59542 5400.00000 0 -23480348.467 9217069.791 -3818251.487 10 0 59542 6300.00000 0 -23690024.148 9451786.223 -619285.231 10 0 59542 7200.00000 0 -23519457.810 9545987.926 2591704.542 10 0 59542 8100.00000 0 -22993049.172 9449902.067 5752383.746 10 0 59542 9000.00000 0 -22146673.419 9120596.949 8801415.423 10 0 59542 9900.00000 0 -21026099.187 8524033.367 11679648.470 10 0 59542 10800.00000 0 -19685012.170 7636747.206 14331262.142 10 0 59542 11700.00000 0 -18182727.880 6447091.937 16704844.295 10 0 59542 12600.00000 0 -16581689.821 4955988.258 18754382.787 10 0 59542 13500.00000 0 -14944857.929 3177148.742 20440151.455 10 0 59542 14400.00000 0 -13333096.367 1136767.204 21729474.213 10 0 59542 15300.00000 0 -11802669.471 -1127315.198 22597353.192 10 0 59542 16200.00000 0 -10402949.788 -3566933.563 23026949.529 10 0 59542 17100.00000 0 -9174433.154 -6125358.818 23009908.049 10 0 59542 18000.00000 0 -8147142.908 -8739421.418 22546519.891 10 0 59542 18900.00000 0 -7339489.116 -11341912.443 21645720.000 10 0 59542 19800.00000 0 -6757629.793 -13864163.742 20324919.268 10 0 59542 20700.00000 0 -6395360.405 -16238701.132 18609674.040 10 0 59542 21600.00000 0 -6234535.932 -18401861.457 16533198.626 10 0 59542 22500.00000 0 -6246007.631 -20296265.387 14135729.324 10 0 59542 23400.00000 0 -6391035.125 -21873043.413 11463751.396 10 0 59542 24300.00000 0 -6623114.389 -23093722.427 8569103.122 10 0 59542 25200.00000 0 -6890144.526 -23931694.030 5507973.618 10 0 59542 26100.00000 0 -7136841.750 -24373202.899 2339813.546 10 0 59542 27000.00000 0 -7307298.178 -24417813.496 -873820.285 10 0 59542 27900.00000 0 -7347576.588 -24078335.261 -4070463.799 10 0 59542 28800.00000 0 -7208230.578 -23380209.290 -7187964.145 10 0 59542 29700.00000 0 -6846642.383 -22360382.202 -10165693.529 10 0 59542 30600.00000 0 -6229078.209 -21065714.652 -12945734.068 10 0 59542 31500.00000 0 -5332372.891 -19550991.751 -15474009.798 10 0 59542 32400.00000 0 -4145171.244 -17876619.369 -17701343.289 10 0 59542 33300.00000 0 -2668672.381 -16106103.628 -19584415.836 10 0 59542 34200.00000 0 -916844.307 -14303419.867 -21086612.260 10 0 59542 35100.00000 0 1083901.516 -12530381.845 -22178733.882 10 0 59542 36000.00000 0 3295563.141 -10844121.599 -22839565.928 10 0 59542 36900.00000 0 5669893.925 -9294785.597 -23056288.569 10 0 59542 37800.00000 0 8150185.718 -7923543.321 -22824723.925 10 0 59542 38700.00000 0 10673415.815 -6760991.118 -22149414.530 10 0 59542 39600.00000 0 13172668.610 -5826017.413 -21043531.987 10 0 59542 40500.00000 0 15579731.535 -5125175.807 -19528617.767 10 0 59542 41400.00000 0 17827757.529 -4652591.186 -17634161.282 10 0 59542 42300.00000 0 19853883.289 -4390401.605 -15397023.459 10 0 59542 43200.00000 0 21601694.519 -4309716.067 -12860717.075 10 0 59542 44100.00000 0 23023435.609 -4372046.632 -10074557.809 10 0 59542 45000.00000 0 24081871.811 -4531153.404 -7092702.686 10 0 59542 45900.00000 0 24751726.560 -4735223.405 -3973094.755 10 0 59542 46800.00000 0 25020634.390 -4929290.436 -776334.725 10 0 59542 47700.00000 0 24889570.196 -5057792.821 2435498.081 10 0 59542 48600.00000 0 24372737.644 -5067160.248 5600052.268 10 0 59542 49500.00000 0 23496922.235 -4908319.776 8655914.673 10 0 59542 50400.00000 0 22300336.926 -4539014.679 11543800.658 10 0 59542 51300.00000 0 20831009.450 -3925837.818 14207701.290 10 0 59542 52200.00000 0 19144779.415 -3045893.353 16595965.332 10 0 59542 53100.00000 0 17302989.450 -1888016.444 18662295.380 10 0 59542 54000.00000 0 15369967.030 -453499.051 20366639.414 10 0 59542 54900.00000 0 13410402.000 1243709.327 21675961.248 10 0 59542 55800.00000 0 11486728.911 3177335.268 22564875.619 10 0 59542 56700.00000 0 9656622.632 5309636.563 23016136.414 10 0 59542 57600.00000 0 7970710.806 7592744.529 23020969.132 10 0 59542 58500.00000 0 6470597.597 9970438.896 22579241.510 10 0 59542 59400.00000 0 5187280.148 12380282.906 21699469.079 10 0 59542 60300.00000 0 4140022.876 14756031.248 20398655.321 10 0 59542 61200.00000 0 3335735.882 17030211.921 18701968.983 10 0 59542 62100.00000 0 2768882.826 19136775.733 16642264.069 10 0 59542 63000.00000 0 2421921.630 21013703.914 14259450.844 10 0 59542 63900.00000 0 2266259.237 22605465.647 11599729.194 10 0 59542 64800.00000 0 2263680.039 23865223.179 8714698.305 10 0 59542 65700.00000 0 2368187.607 24756692.192 5660359.251 10 0 59542 66600.00000 0 2528181.791 25255579.232 2496029.473 10 0 59542 67500.00000 0 2688878.818 25350535.446 -716809.885 10 0 59542 68400.00000 0 2794871.481 25043586.096 -3915711.247 10 0 59542 69300.00000 0 2792720.339 24350017.342 -7038478.686 10 0 59542 70200.00000 0 2633465.278 23297724.673 -10024382.512 10 0 59542 71100.00000 0 2274950.016 21926050.159 -12815346.068 10 0 59542 72000.00000 0 1683859.965 20284157.324 -15357080.866 10 0 59542 72900.00000 0 837385.985 18429012.044 -17600147.372 10 0 59542 73800.00000 0 -275557.566 16423054.472 -19500920.399 10 0 59542 74700.00000 0 -1653613.108 14331659.926 -21022439.959 10 0 59542 75600.00000 0 -3282790.024 12220495.407 -22135131.033 10 0 59542 76500.00000 0 -5136813.862 10152882.511 -22817378.383 10 0 59542 77400.00000 0 -7178000.928 8187277.099 -23055945.412 10 0 59542 78300.00000 0 -9358622.550 6374970.779 -22846229.297 10 0 59542 79200.00000 0 -11622702.722 4758109.726 -22192347.710 10 0 59542 80100.00000 0 -13908174.614 3368112.944 -21107055.714 10 0 59542 81000.00000 0 -16149306.389 2224555.022 -19611494.647 10 0 59542 81900.00000 0 -18279295.505 1334558.923 -17734777.953 10 0 59542 82800.00000 0 -20232923.382 692722.908 -15513422.078 10 0 59542 83700.00000 0 -21949159.861 281583.183 -12990633.513 10 0 59542 84600.00000 0 -23373608.802 72591.333 -10215465.811 10 0 59542 85500.00000 0 -24460692.721 27564.034 -7241863.149 10 0 59543 0.00000 0 -25175485.239 100542.560 -4127609.412 10 0 59543 900.00000 0 -25495115.238 239982.474 -933201.774 10 0 59543 1800.00000 0 -25409683.361 391179.877 2279324.717 10 0 59543 2700.00000 0 -24922654.210 498830.916 5447604.005 10 0 59543 3600.00000 0 -24050707.278 509615.592 8510149.429 10 0 59543 4500.00000 0 -22823053.869 374696.125 11407545.545 10 0 59543 5400.00000 0 -21280249.083 52023.940 14083597.932 10 0 59543 6300.00000 0 -19472549.007 -491642.476 16486418.877 10 0 59543 7200.00000 0 -17457882.100 -1279094.192 18569428.134 10 0 59543 8100.00000 0 -15299519.628 -2321472.518 20292250.007 10 0 59543 9000.00000 0 -13063542.084 -3617564.672 21621490.053 10 0 59543 9900.00000 0 -10816206.887 -5153624.642 22531377.081 10 0 59543 10800.00000 0 -8621326.246 -6903727.674 23004258.788 10 0 59543 11700.00000 0 -6537763.452 -8830644.698 23030942.005 10 0 59543 12600.00000 0 -4617150.841 -10887201.417 22610871.326 10 0 59543 13500.00000 0 -2901923.285 -13018066.818 21752142.770 10 0 59543 14400.00000 0 -1423748.038 -15161897.980 20471351.966 10 0 59543 15300.00000 0 -202415.475 -17253753.116 18793279.304 10 0 59543 16200.00000 0 754763.857 -19227673.418 16750417.407 10 0 59543 17100.00000 0 1453031.382 -21019327.024 14382349.152 10 0 59543 18000.00000 0 1909719.297 -22568605.260 11734987.422 10 0 59543 18900.00000 0 2153275.853 -23822062.885 8859690.429 10 0 59543 19800.00000 0 2221818.508 -24735100.291 5812269.092 10 0 59543 20700.00000 0 2161276.215 -25273795.654 2651905.362 10 0 59543 21600.00000 0 2023199.733 -25416309.656 -559997.712 10 0 59543 22500.00000 0 1862333.079 -25153803.116 -3761011.605 10 0 59543 23400.00000 0 1734049.509 -24490828.153 -6888899.955 10 0 59543 24300.00000 0 1691761.442 -23445175.808 -9882833.890 10 0 59543 25200.00000 0 1784414.995 -22047185.915 -12684580.759 10 0 59543 26100.00000 0 2054176.229 -20338547.849 -15239642.311 10 0 59543 27000.00000 0 2534408.208 -18370642.311 -17498319.616 10 0 59543 27900.00000 0 3248025.536 -16202493.640 -19416683.544 10 0 59543 28800.00000 0 4206296.984 -13898418.605 -20957431.601 10 0 59543 29700.00000 0 5408147.810 -11525470.159 -22090614.417 10 0 59543 30600.00000 0 6839992.199 -9150783.086 -22794217.885 10 0 59543 31500.00000 0 8476103.757 -6838932.453 -23054589.836 10 0 59543 32400.00000 0 10279509.402 -4649414.851 -22866703.278 10 0 59543 33300.00000 0 12203369.899 -2634357.028 -22234251.397 10 0 59543 34200.00000 0 14192789.817 -836546.911 -21169572.709 10 0 59543 35100.00000 0 16186981.650 712131.841 -19693408.043 10 0 59543 36000.00000 0 18121693.968 1991797.531 -17834494.142 10 0 59543 36900.00000 0 19931802.222 2995155.824 -15629001.856 10 0 59543 37800.00000 0 21553953.986 3727549.859 -13119829.877 10 0 59543 38700.00000 0 22929158.021 4206474.601 -10355767.720 10 0 59543 39600.00000 0 24005208.730 4460577.389 -7390544.390 10 0 59543 40500.00000 0 24738844.478 4528188.289 -4281781.356 10 0 59543 41400.00000 0 25097549.389 4455443.659 -1089870.403 10 0 59543 42300.00000 0 25060923.124 4294083.308 2123201.423 10 0 59543 43200.00000 0 24621561.404 4099015.393 5295056.666 10 0 59543 44100.00000 0 23785410.586 3925752.802 8364138.405 10 0 59543 45000.00000 0 22571581.701 3827829.982 11270903.504 10 0 59543 45900.00000 0 21011632.019 3854309.848 13958974.980 10 0 59543 46800.00000 0 19148344.430 4047486.311 16376231.307 10 0 59543 47700.00000 0 17034055.774 4440879.569 18475811.796 10 0 59543 48600.00000 0 14728603.897 5057608.834 20217019.168 10 0 59543 49500.00000 0 12296978.712 5909211.231 21566102.513 10 0 59543 50400.00000 0 9806774.690 6994956.876 22496906.181 10 0 59543 51300.00000 0 7325550.033 8301689.480 22991372.800 10 0 59543 52200.00000 0 4918201.370 9804199.999 23039891.275 10 0 59543 53100.00000 0 2644462.134 11466118.692 22641483.396 10 0 59543 54000.00000 0 556627.370 13241289.557 21803825.564 10 0 59543 54900.00000 0 -1302401.569 15075571.028 20543105.001 10 0 59543 55800.00000 0 -2900672.081 16908989.033 18883712.750 10 0 59543 56700.00000 0 -4218271.373 18678153.689 16857778.655 10 0 59543 57600.00000 0 -5247908.795 20318839.687 14504556.451 10 0 59543 58500.00000 0 -5994965.748 21768623.057 11869669.935 10 0 59543 59400.00000 0 -6477011.682 22969464.411 9004234.019 10 0 59543 60300.00000 0 -6722806.994 23870130.379 5963866.946 10 0 59543 61200.00000 0 -6770835.147 24428351.179 2807612.445 10 0 59543 62100.00000 0 -6667426.443 24612623.259 -403207.331 10 0 59543 63000.00000 0 -6464553.169 24403580.191 -3606185.804 10 0 59543 63900.00000 0 -6217390.006 23794873.340 -6739049.077 10 0 59543 64800.00000 0 -5981743.698 22793524.393 -9740871.949 10 0 59543 65700.00000 0 -5811461.652 21419733.891 -12553268.487 10 0 59543 66600.00000 0 -5755930.114 19706153.150 -15121533.218 10 0 59543 67500.00000 0 -5857768.816 17696649.596 -17395710.121 10 0 59543 68400.00000 0 -6150820.595 15444616.868 -19331568.192 10 0 59543 69300.00000 0 -6658521.896 13010900.353 -20891464.230 10 0 59543 70200.00000 0 -7392723.845 10461424.771 -22045076.039 10 0 59543 71100.00000 0 -8353014.444 7864622.846 -22769991.896 10 0 59543 72000.00000 0 -9526571.158 5288772.319 -23052144.986 10 0 59543 72900.00000 0 -10888550.772 2799352.084 -22886084.734 10 0 59543 73800.00000 0 -12403000.731 456527.181 -22275080.027 10 0 59543 74700.00000 0 -14024254.179 -1687133.076 -21231052.597 10 0 59543 75600.00000 0 -15698750.598 -3588609.642 -19774342.074 10 0 59543 76500.00000 0 -17367206.012 -5215980.549 -17933307.370 10 0 59543 77400.00000 0 -18967041.956 -6549496.610 -15743772.213 10 0 59543 78300.00000 0 -20434971.473 -7582142.573 -13248325.620 10 0 59543 79200.00000 0 -21709633.722 -8319661.813 -10495490.917 10 0 59543 80100.00000 0 -22734166.562 -8780045.139 -7538779.578 10 0 59543 81000.00000 0 -23458609.086 -8992506.834 -4435648.435 10 0 59543 81900.00000 0 -23842033.109 -8995992.645 -1246380.705 10 0 59543 82800.00000 0 -23854314.003 -8837283.934 1967087.003 10 0 59543 83700.00000 0 -23477466.486 -8568779.313 5142368.607 10 0 59543 84600.00000 0 -22706489.261 -8246048.392 8217839.752 10 0 59543 85500.00000 0 -21549683.092 -7925261.756 11133832.436 10 0 59544 0.00000 0 -20028429.173 -7660606.281 13833789.651 10 0 59544 900.00000 0 -18176436.161 -7501795.085 16265359.190 10 0 59544 1800.00000 0 -16038489.405 -7491777.656 18381402.096 10 0 59544 2700.00000 0 -13668751.650 -7664746.249 20140901.646 10 0 59544 3600.00000 0 -11128687.624 -8044522.864 21509752.238 10 0 59544 4500.00000 0 -8484697.590 -8643394.586 22461415.128 10 0 59544 5400.00000 0 -5805557.615 -9461446.456 22977428.819 10 0 59544 6300.00000 0 -3159771.874 -10486420.326 23047764.811 10 0 59544 7200.00000 0 -612945.915 -11694106.258 22671022.219 10 0 59544 8100.00000 0 1774711.293 -13049251.004 21854457.600 10 0 59544 9000.00000 0 3950654.021 -14506946.621 20613849.220 10 0 59544 9900.00000 0 5871941.989 -16014442.228 18973197.921 10 0 59544 10800.00000 0 7506778.420 -17513304.239 16964269.637 10 0 59544 11700.00000 0 8835580.714 -18941835.646 14625987.523 10 0 59544 12600.00000 0 9851539.740 -20237653.689 12003684.588 10 0 59544 13500.00000 0 10560645.019 -21340318.363 9148230.442 10 0 59544 14400.00000 0 10981175.235 -22193901.486 6115048.371 10 0 59544 15300.00000 0 11142675.917 -22749388.125 2963041.423 10 0 59544 16200.00000 0 11084467.812 -22966808.796 -246551.825 10 0 59544 17100.00000 0 10853749.369 -22817011.770 -3451349.515 10 0 59544 18000.00000 0 10503374.076 -22282999.946 -6589043.032 10 0 59544 18900.00000 0 10089397.312 -21360774.776 -9598613.659 10 0 59544 19800.00000 0 9668497.260 -20059650.620 -12421524.973 10 0 59544 20700.00000 0 9295379.850 -18402025.295 -15002866.953 10 0 59544 21600.00000 0 9020278.400 -16422615.502 -17292429.025 10 0 59544 22500.00000 0 8886654.544 -14167188.509 -19245680.624 10 0 59544 23400.00000 0 8929198.409 -11690842.744 -20824639.876 10 0 59544 24300.00000 0 9172213.186 -9055908.808 -21998613.448 10 0 59544 25200.00000 0 9628452.856 -6329558.285 -22744793.286 10 0 59544 26100.00000 0 10298462.555 -3581219.899 -23048698.803 10 0 59544 27000.00000 0 11170449.758 -879910.392 -22904456.284 10 0 59544 27900.00000 0 12220692.053 1708409.164 -22314910.359 10 0 59544 28800.00000 0 13414464.606 4123342.016 -21291565.642 10 0 59544 29700.00000 0 14707448.539 6312325.651 -19854359.896 10 0 59544 30600.00000 0 16047561.211 8232569.405 -18031273.206 10 0 59544 31500.00000 0 17377131.557 9852579.994 -15857780.862 10 0 59544 32400.00000 0 18635329.080 11153212.666 -13376160.583 10 0 59544 33300.00000 0 19760744.381 12128205.484 -10634667.565 10 0 59544 34200.00000 0 20694012.560 12784175.884 -7686593.511 10 0 59544 35100.00000 0 21380369.033 13140081.317 -4589228.091 10 0 59544 36000.00000 0 21772030.018 13226168.230 -1402743.208 10 0 59544 36900.00000 0 21830297.366 13082455.129 1810977.846 10 0 59544 37800.00000 0 21527298.990 12756815.020 4989543.307 10 0 59544 38700.00000 0 20847291.529 12302739.249 8071264.281 10 0 59544 39600.00000 0 19787470.352 11776878.021 10996350.691 10 0 59544 40500.00000 0 18358252.712 11236462.009 13708068.584 10 0 59544 41400.00000 0 16583021.941 10736714.258 16153836.516 10 0 59544 42300.00000 0 14497343.132 10328361.599 18286239.959 10 0 59544 43200.00000 0 12147682.640 10055350.453 20063944.692 10 0 59544 44100.00000 0 9589684.234 9952862.974 21452492.123 10 0 59544 45000.00000 0 6886073.045 10045716.807 22424961.846 10 0 59544 45900.00000 0 4104273.512 10347215.593 22962489.368 10 0 59544 46800.00000 0 1313839.241 10858498.471 23054629.575 10 0 59544 47700.00000 0 -1416199.683 11568416.147 22699559.309 10 0 59544 48600.00000 0 -4019963.106 12453939.175 21904115.260 10 0 59544 49500.00000 0 -6437213.237 13481082.054 20683666.272 10 0 59544 50400.00000 0 -8615610.688 14606305.266 19061822.059 10 0 59544 51300.00000 0 -10512641.470 15778337.407 17069983.290 10 0 59544 52200.00000 0 -12097135.635 16940341.909 14746740.804 10 0 59544 53100.00000 0 -13350314.926 18032338.166 12137134.762 10 0 59544 54000.00000 0 -14266326.361 18993775.912 9291787.182 10 0 59544 54900.00000 0 -14852239.776 19766154.786 6265923.933 10 0 59544 55800.00000 0 -15127509.915 20295578.724 3118304.782 10 0 59544 56700.00000 0 -15122925.984 20535137.027 -89917.953 10 0 59544 57600.00000 0 -14879093.432 20447010.980 -3296389.862 10 0 59544 58500.00000 0 -14444512.465 20004216.139 -6438770.395 10 0 59544 59400.00000 0 -13873335.067 19191905.653 -9455950.079 10 0 59544 60300.00000 0 -13222895.983 18008178.390 -12289244.659 10 0 59544 61200.00000 0 -12551122.786 16464356.553 -14883542.120 10 0 59544 62100.00000 0 -11913935.287 14584719.982 -17188379.681 10 0 59544 63000.00000 0 -11362744.939 12405707.209 -19158929.326 10 0 59544 63900.00000 0 -10942160.508 9974615.981 -20756872.344 10 0 59544 64800.00000 0 -10687997.410 7347856.927 -21951145.799 10 0 59544 65700.00000 0 -10625675.083 4588832.760 -22718546.516 10 0 59544 66600.00000 0 -10769070.182 1765531.140 -23044181.005 10 0 59544 67500.00000 0 -11119874.084 -1052068.952 -22921752.920 10 0 59544 68400.00000 0 -11667481.746 -3794669.756 -22353682.749 10 0 59544 69300.00000 0 -12389416.561 -6396295.443 -21351057.692 10 0 59544 70200.00000 0 -13252273.249 -8796791.719 -19933412.925 10 0 59544 71100.00000 0 -14213138.993 -10944081.099 -18128348.591 10 0 59544 72000.00000 0 -15221432.847 -12796080.738 -15970990.052 10 0 59544 72900.00000 0 -16221085.838 -14322203.986 -13503301.930 10 0 59544 73800.00000 0 -17152969.774 -15504384.241 -10773269.228 10 0 59544 74700.00000 0 -17957472.197 -16337579.598 -7833961.636 10 0 59544 75600.00000 0 -18577108.748 -16829738.677 -4742499.288 10 0 59544 76500.00000 0 -18959062.575 -17001230.590 -1558940.301 10 0 59544 77400.00000 0 -19057543.438 -16883764.454 1654887.903 10 0 59544 78300.00000 0 -18835866.836 -16518845.370 4836590.499 10 0 59544 79200.00000 0 -18268165.290 -15955833.091 7924416.733 10 0 59544 80100.00000 0 -17340659.442 -15249686.256 10858457.152 10 0 59544 81000.00000 0 -16052435.271 -14458488.005 13581803.312 10 0 59544 81900.00000 0 -14415694.344 -13640857.736 16041647.599 10 0 59544 82800.00000 0 -12455466.248 -12853358.247 18190302.084 10 0 59544 83700.00000 0 -10208794.637 -12148007.339 19986117.222 10 0 59544 84600.00000 0 -7723430.124 -11569998.300 21394283.292 10 0 59544 85500.00000 0 -5056083.733 -11155724.725 22387499.720 10 0 59545 0.00000 0 -2270312.753 -10931192.189 22946500.087 10 0 59545 900.00000 0 565875.836 -10910883.049 23060423.476 10 0 59545 1800.00000 0 3382602.304 -11097122.036 22727024.712 10 0 59545 2700.00000 0 6110770.905 -11479968.874 21952720.596 10 0 59545 3600.00000 0 8684693.736 -12037643.004 20752470.184 10 0 59545 4500.00000 0 11044575.487 -12737462.930 19149491.399 10 0 59545 5400.00000 0 13138756.671 -13537261.382 17174818.649 10 0 59545 6300.00000 0 14925622.991 -14387217.590 14866709.159 10 0 59545 7200.00000 0 16375101.920 -15232030.288 12269908.603 10 0 59545 8100.00000 0 17469684.550 -16013340.527 9434789.395 10 0 59545 9000.00000 0 18204930.498 -16672302.606 6416377.630 10 0 59545 9900.00000 0 18589434.828 -17152194.675 3273287.124 10 0 59545 10800.00000 0 18644258.694 -17400958.467 66581.007 10 0 59545 11700.00000 0 18401848.017 -17373560.373 -3141416.866 10 0 59545 12600.00000 0 17904486.058 -17034073.108 -6288337.169 10 0 59545 13500.00000 0 17202345.644 -16357388.948 -9312982.808 10 0 59545 14400.00000 0 16351223.829 -15330490.883 -12156524.731 10 0 59545 15300.00000 0 15410055.224 -13953226.688 -14763651.776 10 0 59545 16200.00000 0 14438309.728 -12238551.972 -17083651.562 10 0 59545 17100.00000 0 13493385.108 -10212230.662 -19071400.949 10 0 59545 18000.00000 0 12628105.074 -7912004.447 -20688246.372 10 0 59545 18900.00000 0 11888428.755 -5386264.972 -21902756.893 10 0 59545 19800.00000 0 11311468.372 -2692283.483 -22691335.396 10 0 59545 20700.00000 0 10923898.723 105928.730 -23038676.223 10 0 59545 21600.00000 0 10740825.297 2940040.522 -22938060.677 10 0 59545 22500.00000 0 10765158.440 5740001.422 -22391484.949 10 0 59545 23400.00000 0 10987519.543 8436714.706 -21409618.272 10 0 59545 24300.00000 0 11386682.767 10964672.372 -20011592.305 10 0 59545 25200.00000 0 11930533.272 13264443.010 -18224625.976 10 0 59545 26100.00000 0 12577501.111 15284909.613 -16083493.143 10 0 59545 27000.00000 0 13278409.945 16985164.967 -13629843.446 10 0 59545 27900.00000 0 13978662.219 18335986.561 -10911389.549 10 0 59545 28800.00000 0 14620668.198 19320830.419 -7980976.712 10 0 59545 29700.00000 0 15146415.991 19936303.587 -4895552.893 10 0 59545 30600.00000 0 15500073.694 20192096.800 -1715059.614 10 0 59545 31500.00000 0 15630513.434 20110381.481 1498734.486 10 0 59545 32400.00000 0 15493650.424 19724697.801 4683434.439 10 0 59545 33300.00000 0 15054497.999 19078381.776 7777230.477 10 0 59545 34200.00000 0 14288851.641 18222598.668 10720096.479 10 0 59545 35100.00000 0 13184530.699 17214066.307 13454952.014 10 0 59545 36000.00000 0 11742125.131 16112564.729 15928765.581 10 0 59545 36900.00000 0 9975215.403 14978337.143 18093577.879 10 0 59545 37800.00000 0 7910055.690 13869491.515 19907425.819 10 0 59545 38700.00000 0 5584732.752 12839511.630 21335150.063 10 0 59545 39600.00000 0 3047834.718 11934981.668 22349071.107 10 0 59545 40500.00000 0 356684.073 11193619.136 22929521.601 10 0 59545 41400.00000 0 -2424792.949 10642698.022 23065225.222 10 0 59545 42300.00000 0 -5228473.313 10297927.689 22753515.142 10 0 59545 43200.00000 0 -7984621.985 10162834.103 22000388.072 10 0 59545 44100.00000 0 -10624548.695 10228669.105 20820392.651 10 0 59545 45000.00000 0 -13083227.574 10474851.541 19236353.916 10 0 59545 45900.00000 0 -15301771.970 10869921.958 17278938.504 10 0 59545 46800.00000 0 -17229662.460 11372971.120 14986068.118 10 0 59545 47700.00000 0 -18826635.870 11935482.666 12402191.717 10 0 59545 48600.00000 0 -20064157.014 12503512.745 9577429.668 10 0 59545 49500.00000 0 -20926411.928 13020114.984 6566605.696 10 0 59545 50400.00000 0 -21410781.087 13427908.492 3428184.953 10 0 59545 51300.00000 0 -21527772.899 13671680.189 223138.680 10 0 59545 52200.00000 0 -21300420.292 13700910.872 -2986242.539 10 0 59545 53100.00000 0 -20763165.976 13472117.368 -6137563.305 10 0 59545 54000.00000 0 -19960283.709 12950910.728 -9169541.560 10 0 59545 54900.00000 0 -18943902.384 12113682.107 -12023206.036 10 0 59545 55800.00000 0 -17771716.800 10948843.770 -14643048.873 10 0 59545 56700.00000 0 -16504482.218 9457571.460 -16978110.359 10 0 59545 57600.00000 0 -15203398.863 7654015.420 -18982974.229 10 0 59545 58500.00000 0 -13927497.109 5564969.944 -20618653.743 10 0 59545 59400.00000 0 -12731133.824 3229014.114 -21853351.278 10 0 59545 60300.00000 0 -11661705.410 695158.662 -22663076.704 10 0 59545 61200.00000 0 -10757673.747 -1978945.297 -23032112.711 10 0 59545 62100.00000 0 -10046987.786 -4729161.665 -22953318.361 10 0 59545 63000.00000 0 -9545966.675 -7487299.698 -22428265.258 10 0 59545 63900.00000 0 -9258690.802 -10183718.529 -21467203.974 10 0 59545 64800.00000 0 -9176925.618 -12749998.033 -20088861.597 10 0 59545 65700.00000 0 -9280580.633 -15121565.363 -18320074.446 10 0 59545 66600.00000 0 -9538683.495 -17240168.289 -16195263.195 10 0 59545 67500.00000 0 -9910827.296 -19056092.933 -13755760.602 10 0 59545 68400.00000 0 -10349029.362 -20530034.128 -11049004.930 10 0 59545 69300.00000 0 -10799922.394 -21634541.065 -8127614.851 10 0 59545 70200.00000 0 -11207184.843 -22354978.770 -5048363.947 10 0 59545 71100.00000 0 -11514107.251 -22689966.216 -1871074.926 10 0 59545 72000.00000 0 -11666185.646 -22651273.793 1342544.586 10 0 59545 72900.00000 0 -11613631.915 -22263185.648 4530101.725 10 0 59545 73800.00000 0 -11313694.709 -21561354.800 7629729.992 10 0 59545 74700.00000 0 -10732692.506 -20591200.165 10581288.895 10 0 59545 75600.00000 0 -9847672.691 -19405913.752 13327528.318 10 0 59545 76500.00000 0 -8647626.308 -18064162.384 15815195.133 10 0 59545 77400.00000 0 -7134206.912 -16627580.832 17996060.826 10 0 59545 78300.00000 0 -5321922.685 -15158161.679 19827850.759 10 0 59545 79200.00000 0 -3237792.909 -13715651.101 21275057.740 10 0 59545 80100.00000 0 -920482.255 -12355059.287 22309624.807 10 0 59545 81000.00000 0 1581052.224 -11124389.043 22911484.815 10 0 59545 81900.00000 0 4209346.346 -10062676.866 23068946.958 10 0 59545 82800.00000 0 6900573.403 -9198427.679 22778923.174 10 0 59545 83700.00000 0 9586960.498 -8548507.962 22046990.253 10 0 59545 84600.00000 0 12199377.684 -8117543.019 20887286.261 10 0 59545 85500.00000 0 14669993.625 -7897843.223 19322242.895 99